TimePST,TemperatureF,Dew PointF,Humidity,Sea Level PressureIn,VisibilityMPH,Wind Direction,Wind SpeedMPH,Gust SpeedMPH,PrecipitationIn,Events,Conditions,WindDirDegrees,DateUTC
12:15 AM,50.0,46.4,87,30.15,10.0,SE,5.8,-,N/A,,Overcast,140,2012-11-19 08:15:00
12:56 AM,50.0,48.0,93,30.15,4.0,SSE,4.6,-,0.00,Rain,Light Rain,150,2012-11-19 08:56:00
1:56 AM,50.0,48.0,93,30.13,10.0,SSE,5.8,-,0.00,,Overcast,160,2012-11-19 09:56:00
2:56 AM,51.1,46.9,86,30.14,10.0,South,5.8,-,N/A,,Overcast,170,2012-11-19 10:56:00
3:56 AM,50.0,48.0,93,30.13,10.0,South,3.5,-,N/A,,Overcast,170,2012-11-19 11:56:00
4:56 AM,51.1,48.0,89,30.13,10.0,SSE,5.8,-,N/A,,Overcast,150,2012-11-19 12:56:00
5:31 AM,51.8,48.2,88,30.13,9.0,SE,3.5,-,N/A,,Overcast,130,2012-11-19 13:31:00
5:56 AM,52.0,48.9,89,30.13,10.0,SSE,3.5,-,N/A,,Overcast,150,2012-11-19 13:56:00
6:32 AM,51.8,48.2,88,30.15,10.0,SE,6.9,-,N/A,,Overcast,130,2012-11-19 14:32:00
6:56 AM,51.1,48.9,92,30.14,10.0,SE,8.1,-,N/A,,Overcast,130,2012-11-19 14:56:00
7:56 AM,53.1,46.9,80,30.17,10.0,SSE,4.6,-,N/A,,Overcast,150,2012-11-19 15:56:00
8:56 AM,52.0,48.0,86,30.18,10.0,SSE,9.2,-,N/A,,Overcast,150,2012-11-19 16:56:00
9:56 AM,54.0,48.0,80,30.19,10.0,SE,10.4,-,N/A,,Overcast,140,2012-11-19 17:56:00
10:56 AM,54.0,48.0,80,30.19,10.0,SSE,9.2,-,N/A,,Overcast,160,2012-11-19 18:56:00
11:56 AM,55.0,48.9,80,30.18,7.0,South,10.4,-,N/A,,Overcast,180,2012-11-19 19:56:00
12:56 PM,54.0,50.0,86,30.17,10.0,SSE,9.2,17.3,N/A,,Overcast,160,2012-11-19 20:56:00
1:06 PM,53.6,50.0,88,30.17,9.0,SSE,9.2,-,N/A,,Overcast,160,2012-11-19 21:06:00
1:18 PM,53.6,51.8,94,30.17,6.0,SSE,10.4,-,N/A,,Overcast,160,2012-11-19 21:18:00
1:26 PM,53.6,51.8,94,30.16,7.0,SSE,11.5,17.3,N/A,,Overcast,160,2012-11-19 21:26:00
1:56 PM,54.0,52.0,93,30.15,4.0,South,8.1,-,N/A,,Overcast,170,2012-11-19 21:56:00
2:26 PM,53.6,51.8,94,30.13,2.5,SSE,11.5,-,0.00,Rain,Light Rain,150,2012-11-19 22:26:00
2:38 PM,53.6,51.8,94,30.13,5.0,SSE,10.4,-,0.00,,Overcast,160,2012-11-19 22:38:00
2:45 PM,55.4,51.8,88,30.14,9.0,South,11.5,18.4,0.00,,Overcast,170,2012-11-19 22:45:00
2:56 PM,55.0,52.0,89,30.13,10.0,South,11.5,-,0.00,,Overcast,170,2012-11-19 22:56:00
3:07 PM,55.4,51.8,88,30.13,10.0,SSE,12.7,19.6,N/A,,Overcast,160,2012-11-19 23:07:00
3:56 PM,55.9,51.1,84,30.14,10.0,SSE,11.5,-,N/A,,Overcast,150,2012-11-19 23:56:00
4:56 PM,55.9,52.0,87,30.12,10.0,SSE,9.2,17.3,N/A,,Overcast,160,2012-11-20 00:56:00
5:56 PM,55.0,53.1,93,30.12,6.0,SSE,9.2,-,0.01,,Overcast,160,2012-11-20 01:56:00
6:39 PM,55.4,53.6,94,30.13,7.0,SSE,9.2,-,0.00,,Overcast,160,2012-11-20 02:39:00
6:56 PM,55.0,53.1,93,30.12,5.0,SSE,8.1,-,0.00,Rain,Light Rain,160,2012-11-20 02:56:00
7:56 PM,55.0,53.1,93,30.12,4.0,SSE,9.2,-,0.02,Rain,Light Rain,150,2012-11-20 03:56:00
8:34 PM,55.4,53.6,94,30.12,4.0,SSE,6.9,17.3,0.01,Rain,Light Rain,160,2012-11-20 04:34:00
8:56 PM,55.0,53.1,93,30.11,4.0,SSE,8.1,-,0.01,Rain,Light Rain,160,2012-11-20 04:56:00
9:56 PM,55.0,53.1,93,30.12,3.0,SSE,6.9,-,0.01,Rain,Light Rain,150,2012-11-20 05:56:00
10:56 PM,55.0,53.1,93,30.11,4.0,SSE,9.2,-,0.01,Rain,Light Rain,160,2012-11-20 06:56:00
11:15 PM,55.4,53.6,94,30.11,2.5,SSE,8.1,-,0.01,Rain,Light Rain,160,2012-11-20 07:15:00
11:23 PM,55.4,53.6,94,30.11,3.0,SSE,8.1,-,0.01,Rain,Light Rain,150,2012-11-20 07:23:00
11:36 PM,55.4,53.6,94,30.11,4.0,SSE,5.8,-,0.02,Rain,Light Rain,160,2012-11-20 07:36:00
11:56 PM,55.0,53.1,93,30.09,4.0,SSE,5.8,-,0.02,Rain,Light Rain,160,2012-11-20 07:56:00